[[{"header":{"parameterUnit":"m.s-1","parameterCategory":1,"la1":30.2991,"la2":30.254,"lo1":-89.0895,"lo2":-89.0444,"dy":0.0017,"dx":0.0017,"nx":28,"ny":28,"refTime":"2024-03-31T03:00:00:Z","depth":0,"parameterNumber":2,"parameterNumberName":"U-component_of_WINDS"},"data":[0,0,0,0,0,0,0,0,0,0,0,0,0,0,0,0,0,0,0,0,0,0,0,0,0,0,0,0,0,0,0,0,0,0,0,0,0,0,0,0,0,0,0,0,0,0,0,0,0,0,0,0,0,0,0,0,0,0,-0.1402,-0.1402,0,-0.1401,-0.1401,-0.1401,-0.1402,-0.1402,-0.1402,-0.1402,-0.1402,-0.1402,-0.1402,0,0,0,0,0,0,0,0,0,0,0,0,0,-0.1403,-0.1403,-0.1402,-0.1402,-0.1402,-0.1401,-0.1401,-0.1401,-0.1402,-0.1402,-0.1402,-0.1402,-0.1402,-0.1402,-0.1402,0,0,0,0,0,0,0,0,0,0,0,0,0,-0.1403,-0.1403,-0.1402,-0.1402,-0.1402,-0.1401,-0.1401,-0.1401,-0.1402,-0.1402,-0.1402,-0.1402,-0.1402,-0.1402,-0.1402,-0.1401,0,0,-0.1402,-0.1402,0,0,0,0,0,0,0,0,-0.1403,-0.1403,-0.1402,-0.1402,-0.1402,-0.1401,-0.1402,-0.1401,-0.1402,-0.1402,-0.1402,-0.1402,-0.1402,-0.1402,-0.1402,-0.1401,-0.1401,-0.1402,-0.1402,-0.1402,-0.1402,0,0,0,0,0,0,0,-0.1403,-0.1403,-0.1401,-0.1402,-0.1402,-0.1402,-0.1402,-0.1402,-0.1402,-0.1402,-0.1402,-0.1402,-0.1402,-0.1402,-0.1402,-0.1401,-0.1402,-0.1402,-0.1402,-0.1402,-0.1401,-0.1401,0,0,0,0,0,0,-0.1403,-0.1403,-0.1401,-0.1401,-0.1402,-0.1402,-0.1402,-0.1402,-0.1402,-0.1402,-0.1402,-0.1402,-0.1402,-0.1402,-0.1402,-0.1401,-0.1402,-0.1402,-0.1402,-0.1401,-0.1401,-0.1401,0,0,0,0,0,0,-0.1403,-0.1403,-0.1401,-0.1402,-0.1402,-0.1402,-0.1401,-0.1401,-0.1401,-0.1401,-0.1401,-0.1401,-0.1402,-0.1402,-0.1401,-0.1401,-0.1402,-0.1402,-0.1401,-0.1401,-0.1401,-0.1401,0,0,0,0,0,0,-0.1403,-0.1403,-0.1402,-0.1402,-0.1402,-0.1401,-0.1401,-0.1401,-0.1401,-0.1401,-0.1401,-0.1401,-0.1402,-0.1401,-0.1401,-0.1401,-0.1402,-0.1401,-0.1401,-0.1401,-0.1401,-0.1401,-0.1401,0,0,0,0,0,-0.1403,-0.1402,-0.1402,-0.1402,-0.1401,-0.1401,-0.1401,-0.1401,-0.1401,-0.1401,-0.1401,-0.1401,-0.1401,-0.1401,-0.1401,-0.1401,-0.1401,-0.1401,-0.1401,-0.1401,-0.1401,-0.1401,0,0,0,0,0,0,-0.1402,-0.1402,-0.1402,-0.1401,-0.1401,-0.1401,-0.1401,-0.1401,-0.1401,-0.1401,-0.1401,-0.1401,-0.1401,-0.1401,-0.1401,-0.1401,-0.1402,-0.1402,-0.1401,-0.1401,-0.1401,-0.1401,-0.1402,0,0,0,0,0,-0.1402,-0.1402,-0.1402,-0.1401,-0.1401,-0.1401,-0.1401,-0.1401,-0.1401,-0.1401,-0.1401,-0.1401,-0.1401,-0.1401,-0.1401,-0.1401,-0.1401,-0.1401,-0.1401,-0.1401,-0.1401,-0.1402,-0.1402,-0.1401,-0.1401,-0.1401,0,0,-0.1402,-0.1401,-0.1401,-0.1401,-0.1401,-0.14,-0.1401,-0.14,-0.14,-0.1401,-0.1401,-0.1401,-0.1401,-0.1401,-0.1401,-0.1401,-0.1401,-0.1401,-0.1401,-0.1401,-0.1402,-0.1402,-0.1402,-0.1401,-0.1401,-0.1401,0,0,-0.14,-0.14,-0.14,-0.14,-0.14,-0.14,-0.14,-0.14,-0.14,-0.14,-0.14,-0.14,-0.14,-0.1401,-0.1401,-0.1401,-0.1401,-0.1401,-0.1401,-0.1401,-0.1401,-0.1401,-0.1401,-0.1401,-0.1401,-0.1401,-0.1401,0,-0.14,-0.1399,-0.1399,-0.1399,-0.1399,-0.14,-0.1399,-0.1399,-0.1399,-0.14,-0.14,-0.14,-0.14,-0.1401,-0.1401,-0.1401,-0.1401,-0.1401,-0.1401,-0.1401,-0.1401,-0.1401,-0.1401,-0.1401,-0.1401,-0.1401,-0.1401,0,-0.1399,-0.1398,-0.1398,-0.1398,-0.1398,-0.1398,-0.1398,-0.1398,-0.1399,-0.1399,-0.1399,-0.14,-0.14,-0.14,-0.14,-0.1401,-0.1401,-0.1401,-0.1401,-0.1401,-0.1401,-0.1401,-0.1401,-0.1401,-0.1401,-0.1401,0,0,-0.1397,-0.1397,-0.1397,-0.1397,-0.1398,-0.1398,-0.1398,-0.1398,-0.1398,-0.1398,-0.1399,-0.1399,-0.14,-0.14,-0.14,-0.14,-0.1401,-0.1401,-0.1401,-0.1401,-0.1401,-0.1401,-0.1401,-0.1401,-0.1401,-0.1401,-0.1402,0,-0.1396,-0.1396,-0.1396,-0.1396,-0.1396,-0.1397,-0.1397,-0.1397,-0.1398,-0.1398,-0.1399,-0.1399,-0.1399,-0.14,-0.14,-0.1401,-0.1401,-0.1401,-0.1402,-0.1402,-0.1401,-0.1401,-0.1401,-0.1402,-0.1402,-0.1402,-0.1402,0,-0.1394,-0.1395,-0.1395,-0.1395,-0.1396,-0.1396,-0.1396,-0.1396,-0.1397,-0.1398,-0.1398,-0.1399,-0.1399,-0.1399,-0.14,-0.14,-0.1401,-0.1401,-0.1401,-0.1401,-0.1402,-0.1402,-0.1402,-0.1402,-0.1402,-0.1402,-0.1402,0,-0.1393,-0.1394,-0.1394,-0.1394,-0.1395,-0.1395,-0.1395,-0.1396,-0.1397,-0.1397,-0.1398,-0.1398,-0.1399,-0.14,-0.14,-0.1401,-0.1402,-0.1402,-0.1402,-0.1402,-0.1402,-0.1402,-0.1402,-0.1402,-0.1402,-0.1402,-0.1402,0,-0.1392,-0.1392,-0.1393,-0.1393,-0.1394,-0.1394,-0.1395,-0.1395,-0.1396,-0.1396,-0.1397,-0.1398,-0.1399,-0.14,-0.14,-0.1401,-0.1401,-0.1402,-0.1402,-0.1402,-0.1402,-0.1402,-0.1402,-0.1402,-0.1402,-0.1402,-0.1402,0,-0.1391,-0.1392,-0.1392,-0.1393,-0.1393,-0.1393,-0.1394,-0.1395,-0.1395,-0.1396,-0.1396,-0.1397,-0.1398,-0.1399,-0.1401,-0.1401,-0.1402,-0.1402,-0.1402,-0.1402,-0.1402,-0.1402,-0.1403,-0.1403,-0.1403,-0.1403,-0.1403,0,-0.139,-0.139,-0.1391,-0.1392,-0.1392,-0.1393,-0.1393,-0.1394,-0.1395,-0.1396,-0.1396,-0.1397,-0.1398,-0.14,-0.1401,-0.1402,-0.1402,-0.1402,-0.1402,-0.1402,-0.1402,-0.1402,-0.1403,-0.1402,-0.1402,-0.1402,-0.1402,0,-0.1389,-0.1389,-0.139,-0.1391,-0.1391,-0.1392,-0.1393,-0.1393,-0.1394,-0.1395,-0.1396,-0.1397,-0.1398,-0.1399,-0.1401,-0.1401,-0.1402,-0.1402,-0.1402,-0.1402,-0.1402,-0.1402,-0.1402,-0.1402,-0.1402,-0.1402,-0.1402,-0.1402,-0.1388,-0.1388,-0.1389,-0.139,-0.1391,-0.1391,-0.1392,-0.1393,-0.1394,-0.1395,-0.1395,-0.1397,-0.1398,-0.14,-0.1401,-0.1402,-0.1402,-0.1402,-0.1402,-0.1402,-0.1402,-0.1402,-0.1402,-0.1402,-0.1402,-0.1402,-0.1402,0,-0.1387,-0.1388,-0.1388,-0.1389,-0.139,-0.1391,-0.1392,-0.1392,-0.1393,-0.1394,-0.1395,-0.1397,-0.1398,-0.14,-0.1401,-0.1402,-0.1402,-0.1402,-0.1402,-0.1402,-0.1402,-0.1402,-0.1402,-0.1402,-0.1402,-0.1402,-0.1402,-0.1402,-0.1386,-0.1387,-0.1388,-0.1389,-0.139,-0.1391,-0.1391,-0.1392,-0.1393,-0.1395,-0.1396,-0.1397,-0.1398,-0.14,-0.1401,-0.1402,-0.1402,-0.1402,-0.1403,-0.1402,-0.1402,-0.1402,-0.1402,-0.1402,-0.1402,-0.1403,-0.1403,-0.1403]},{"header":{"parameterUnit":"m.s-1","parameterCategory":1,"la1":30.2991,"la2":30.254,"lo1":-89.0895,"lo2":-89.0444,"dy":0.0017,"dx":0.0017,"nx":28,"ny":28,"refTime":"2024-03-31T03:00:00:Z","depth":0,"parameterNumber":3,"parameterNumberName":"V-component_of_WINDS"},"data":[0,0,0,0,0,0,0,0,0,0,0,0,0,0,0,0,0,0,0,0,0,0,0,0,0,0,0,0,0,0,0,0,0,0,0,0,0,0,0,0,0,0,0,0,0,0,0,0,0,0,0,0,0,0,0,0,0,0,5.048,5.0481,0,5.0512,5.0513,5.0513,5.0448,5.0446,5.0444,5.0442,5.047,5.0473,5.0475,0,0,0,0,0,0,0,0,0,0,0,0,0,5.0358,5.036,5.048,5.0481,5.0481,5.0512,5.0513,5.0513,5.0449,5.0446,5.0444,5.0441,5.0469,5.0472,5.0476,0,0,0,0,0,0,0,0,0,0,0,0,0,5.0402,5.0361,5.048,5.0453,5.0451,5.0512,5.0513,5.0513,5.0449,5.0446,5.0443,5.044,5.0468,5.0472,5.0476,5.0564,0,0,5.0488,5.049,0,0,0,0,0,0,0,0,5.04,5.0407,5.0456,5.0455,5.0453,5.0473,5.048,5.053,5.045,5.045,5.0442,5.0438,5.0473,5.0477,5.0489,5.0565,5.0566,5.0489,5.0491,5.0493,5.0494,0,0,0,0,0,0,0,5.0397,5.0405,5.0493,5.0457,5.0455,5.0437,5.044,5.0489,5.0479,5.0449,5.0445,5.045,5.0472,5.0486,5.049,5.0567,5.0489,5.0492,5.0495,5.0496,5.0716,5.072,0,0,0,0,0,0,5.0398,5.0403,5.0492,5.0494,5.0418,5.0442,5.0445,5.047,5.0478,5.0476,5.0452,5.0447,5.048,5.0485,5.049,5.0594,5.0493,5.0497,5.0499,5.0713,5.0717,5.0721,0,0,0,0,0,0,5.0396,5.0407,5.049,5.0447,5.0457,5.0447,5.0475,5.0472,5.0486,5.048,5.0478,5.0469,5.0478,5.0485,5.0547,5.0594,5.0498,5.0502,5.0709,5.0714,5.0719,5.0803,0,0,0,0,0,0,5.0392,5.0406,5.0441,5.0449,5.0459,5.0548,5.0478,5.0475,5.0494,5.0487,5.0495,5.0494,5.0476,5.0541,5.0551,5.0598,5.0505,5.0704,5.0711,5.0717,5.0796,5.0811,5.0823,0,0,0,0,0,5.0388,5.0462,5.0443,5.0454,5.0503,5.0551,5.0557,5.0537,5.0498,5.0532,5.0528,5.0493,5.0587,5.0548,5.0558,5.0608,5.0701,5.0709,5.0717,5.079,5.0808,5.0823,0,0,0,0,0,0,5.0458,5.0463,5.0441,5.052,5.0536,5.054,5.0582,5.0556,5.0581,5.0573,5.0545,5.0548,5.0615,5.0617,5.0573,5.0693,5.0638,5.0648,5.069,5.0707,5.072,5.0718,5.0509,0,0,0,0,0,5.0484,5.0524,5.0525,5.0594,5.0603,5.0592,5.0612,5.0595,5.0609,5.0615,5.0616,5.063,5.0662,5.0684,5.0714,5.0796,5.0796,5.0835,5.0848,5.0859,5.0869,5.0912,5.0929,5.0746,5.0746,5.0746,0,0,5.0535,5.0542,5.0569,5.0609,5.0619,5.066,5.0598,5.0644,5.0674,5.0621,5.0681,5.0682,5.0695,5.0768,5.0799,5.0771,5.0919,5.0869,5.0878,5.0881,5.0922,5.0939,5.0955,5.0751,5.075,5.0749,0,0,5.065,5.066,5.0719,5.0731,5.0748,5.074,5.0754,5.0762,5.0761,5.082,5.0782,5.0816,5.0873,5.0884,5.0897,5.1017,5.0986,5.1027,5.1097,5.114,5.1155,5.1167,5.1211,5.1226,5.1036,5.1036,5.1036,0,5.0712,5.0774,5.0752,5.0802,5.082,5.0776,5.0835,5.0847,5.0872,5.0885,5.0853,5.0924,5.0929,5.1004,5.1034,5.1045,5.106,5.1026,5.1155,5.1167,5.1179,5.1219,5.1236,5.1041,5.1041,5.104,5.104,0,5.0849,5.0893,5.0938,5.0966,5.0989,5.1043,5.1028,5.1053,5.1034,5.1028,5.1089,5.1094,5.1125,5.1141,5.1122,5.1213,5.1195,5.116,5.1103,5.1202,5.124,5.1255,5.1048,5.1046,5.1045,5.1044,0,0,5.101,5.1026,5.1043,5.1055,5.107,5.1102,5.1153,5.1185,5.1207,5.1225,5.1267,5.1316,5.1284,5.1299,5.128,5.1318,5.1413,5.1278,5.1277,5.1303,5.1514,5.1541,5.156,5.1392,5.1395,5.1397,5.1513,0,5.1125,5.1216,5.1198,5.1286,5.1326,5.1285,5.1329,5.1342,5.1338,5.137,5.1364,5.14,5.1354,5.1363,5.1398,5.1394,5.1455,5.1385,5.143,5.1432,5.1429,5.158,5.1609,5.1718,5.1528,5.153,5.1532,0,5.1272,5.1298,5.1391,5.14,5.1416,5.1457,5.1484,5.1515,5.1529,5.1523,5.154,5.1515,5.1564,5.1507,5.1574,5.1527,5.1544,5.1544,5.1548,5.1552,5.1489,5.1589,5.1752,5.1769,5.1555,5.1553,5.1551,0,5.1382,5.1439,5.1503,5.1514,5.1526,5.1556,5.1561,5.1572,5.1592,5.1615,5.1627,5.1655,5.167,5.1692,5.1674,5.1634,5.1744,5.1685,5.174,5.1741,5.1766,5.1765,5.1936,5.1776,5.1775,5.1775,5.1775,0,5.1513,5.1571,5.1552,5.1591,5.1655,5.1632,5.1696,5.1696,5.1706,5.1743,5.1708,5.1743,5.1717,5.175,5.1735,5.1794,5.18,5.1796,5.1792,5.1801,5.1801,5.1812,5.1804,5.1779,5.1778,5.1778,5.1777,0,5.1647,5.1636,5.1702,5.1709,5.1711,5.1758,5.1763,5.1798,5.1791,5.1839,5.1849,5.1838,5.1874,5.1858,5.1896,5.1887,5.1962,5.1947,5.1958,5.1955,5.2011,5.2007,5.2196,5.222,5.2043,5.2045,5.2046,0,5.1732,5.1776,5.1787,5.1811,5.182,5.1858,5.1878,5.1857,5.188,5.1898,5.1932,5.1965,5.1992,5.2052,5.2046,5.2075,5.2061,5.2125,5.2065,5.2072,5.2063,5.2061,5.2066,5.2138,5.214,5.2141,5.2143,0,5.1884,5.1877,5.1909,5.194,5.1966,5.1988,5.2008,5.2028,5.2007,5.2034,5.2073,5.2093,5.2132,5.2166,5.2192,5.2196,5.2166,5.2162,5.2176,5.2186,5.2191,5.219,5.1992,5.2158,5.2156,5.2155,5.2154,5.2154,5.1996,5.2034,5.2048,5.2085,5.2098,5.2117,5.2151,5.2149,5.2181,5.2213,5.2197,5.2242,5.2253,5.2284,5.2293,5.2326,5.23,5.2321,5.2327,5.2332,5.2341,5.2185,5.233,5.233,5.2329,5.2329,5.2329,0,5.2147,5.2155,5.2189,5.2218,5.2247,5.2218,5.2237,5.2263,5.2303,5.2317,5.2344,5.2388,5.242,5.2418,5.2447,5.2475,5.2462,5.2483,5.2482,5.2483,5.2361,5.2346,5.2493,5.2493,5.2493,5.2493,5.2493,5.2493,5.2229,5.2292,5.2287,5.2355,5.2361,5.2406,5.2419,5.2436,5.2447,5.2498,5.2526,5.2525,5.2532,5.2562,5.259,5.2588,5.2601,5.2628,5.2622,5.2508,5.2492,5.2476,5.2462,5.2631,5.2631,5.2741,5.2742,5.2743]}]]